This is the latest recevied weather packets stored in our database for station/object OE9FWV-10. If no packets are shown the sender has not sent any weather packets the latest 10 day(s).
| Time | Temp. | Humidity | Pressure | Rain* | Wind** | Luminosity | Snow |
|---|---|---|---|---|---|---|---|
| 1777553851 | 38.89° C | 12% | 1024 hPa | - | - | - | - |
| 1777552951 | 38.89° C | 12% | 1024.1 hPa | - | - | - | - |
| 1777552050 | 38.33° C | 12% | 1024.2 hPa | - | - | - | - |
| 1777551150 | 38.33° C | 13% | 1024.4 hPa | - | - | - | - |
| 1777550250 | 37.78° C | 13% | 1024.4 hPa | - | - | - | - |
| 1777549350 | 37.22° C | 13% | 1024.5 hPa | - | - | - | - |
| 1777548450 | 36.67° C | 15% | 1024.8 hPa | - | - | - | - |
| 1777547550 | 35.56° C | 15% | 1024.8 hPa | - | - | - | - |
| 1777546650 | 34.44° C | 16% | 1024.9 hPa | - | - | - | - |
| 1777545750 | 33.89° C | 17% | 1024.9 hPa | - | - | - | - |
| 1777544850 | 32.78° C | 18% | 1025 hPa | - | - | - | - |
| 1777543950 | 32.22° C | 19% | 1025.2 hPa | - | - | - | - |
| 1777543050 | 30.56° C | 20% | 1025.3 hPa | - | - | - | - |
| 1777542150 | 28.89° C | 22% | 1025.4 hPa | - | - | - | - |
| 1777541250 | 26.67° C | 25% | 1025.6 hPa | - | - | - | - |
| 1777540350 | 25° C | 26% | 1025.7 hPa | - | - | - | - |
| 1777539450 | 24.44° C | 26% | 1025.8 hPa | - | - | - | - |
| 1777538549 | 24.44° C | 26% | 1025.8 hPa | - | - | - | - |
| 1777537650 | 24.44° C | 27% | 1025.8 hPa | - | - | - | - |
| 1777536750 | 24.44° C | 27% | 1025.8 hPa | - | - | - | - |
| 1777535849 | 23.89° C | 27% | 1025.8 hPa | - | - | - | - |
| 1777534949 | 23.89° C | 27% | 1025.7 hPa | - | - | - | - |
| 1777534049 | 23.89° C | 27% | 1025.8 hPa | - | - | - | - |
| 1777533149 | 23.89° C | 27% | 1025.8 hPa | - | - | - | - |
| 1777532249 | 23.89° C | 27% | 1025.9 hPa | - | - | - | - |
* Rain since midnight (hover to see other rain measurements)
** Current wind speed in m/s (hover to see current wind gust speed)